M I D A S
Marine Information and Data Acquisition System
Tripno 711 of the Zeeleeuw from 2004-05-07 07:14:48 to 2004-05-07 09:23:56
Back to CruiseResearch ActivitiesStationsMapUnderway DataData graphs

EquipmentUnitsComments
TimeDGPSUTC
LatitudeDGPSDM.mWGS84
LongitudeDGPSDM.mWGS84
SpeedMeteo Stationm/sRelative wind speed
DirectionMeteo StationdegRelative wind direction
TemperatureMeteo Stationdeg CelciusAir temperature
PressureMeteo StationPaAtmospheric pressure
HumidityMeteo Station%Relative humidity
Missing or incorrect values are displayed as -999
Metereological data collected by the RV Zeeleeuw from 2004-05-07 07:14:48 to 2004-05-07 09:23:56
                                                                                    Next 1000 lines
Time Latitude Longitude Speed Direction Temperature Pressure Humidity
2004-05-07 07:14:56 51°13.595 2°56.098 2 177 11.6 100000 80
2004-05-07 07:15:01 51°13.595 2°56.098 1.8 178 11.6 100000 80
2004-05-07 07:15:06 51°13.595 2°56.098 3.3 172 11.6 100000 80
2004-05-07 07:15:11 51°13.595 2°56.098 3.1 186 11.6 100000 80
2004-05-07 07:15:16 51°13.595 2°56.098 2.4 206 11.6 100000 80
2004-05-07 07:15:21 51°13.594 2°56.098 2.1 215 11.6 100000 80
2004-05-07 07:15:26 51°13.594 2°56.098 2.6 217 11.6 100000 80
2004-05-07 07:15:31 51°13.594 2°56.098 2.8 215 11.6 100000 80
2004-05-07 07:15:36 51°13.594 2°56.098 2.9 211 11.6 100000 80
2004-05-07 07:15:41 51°13.594 2°56.097 4.4 217 11.6 100000 80
2004-05-07 07:15:46 51°13.594 2°56.097 3.7 226 11.6 100000 80
2004-05-07 07:15:50 51°13.595 2°56.095 5.1 216 11.6 100000 80
2004-05-07 07:15:56 51°13.596 2°56.092 4.9 212 11.6 100000 80
2004-05-07 07:16:01 51°13.596 2°56.088 5 213 11.6 100000 80
2004-05-07 07:16:06 51°13.598 2°56.084 3.8 197 11.6 100000 80
2004-05-07 07:16:12 51°13.6 2°56.078 3.4 202 11.6 100000 79
2004-05-07 07:16:17 51°13.601 2°56.073 4.2 210 11.6 100000 79
2004-05-07 07:16:22 51°13.603 2°56.067 4.2 206 11.6 100000 79
2004-05-07 07:16:26 51°13.605 2°56.061 4.3 202 11.6 100000 79
2004-05-07 07:16:31 51°13.607 2°56.054 3.7 196 11.6 100000 79
2004-05-07 07:16:37 51°13.61 2°56.046 3.2 189 11.6 100000 79
2004-05-07 07:16:41 51°13.612 2°56.039 3.7 186 11.5 100000 79
2004-05-07 07:16:46 51°13.615 2°56.031 2.7 207 11.5 100000 79
2004-05-07 07:16:52 51°13.618 2°56.021 3.9 201 11.5 100000 79
2004-05-07 07:16:57 51°13.62 2°56.012 3.8 167 11.5 100000 79
2004-05-07 07:17:02 51°13.623 2°56.003 3.7 179 11.6 100000 79
2004-05-07 07:17:07 51°13.626 2°55.994 7 172 11.6 100000 79
2004-05-07 07:17:11 51°13.628 2°55.986 4.4 180 11.6 100000 80
2004-05-07 07:17:17 51°13.632 2°55.974 3.1 181 11.6 100000 80
2004-05-07 07:17:22 51°13.635 2°55.965 5.2 177 11.7 100000 80
2004-05-07 07:17:26 51°13.637 2°55.957 3.4 198 11.7 100000 80
2004-05-07 07:17:32 51°13.64 2°55.944 4.4 198 11.7 100000 80
2004-05-07 07:17:37 51°13.643 2°55.935 3.4 191 11.7 100000 80
2004-05-07 07:17:41 51°13.645 2°55.926 3.7 192 11.7 100000 79
2004-05-07 07:17:46 51°13.648 2°55.916 3 195 11.7 100000 79
2004-05-07 07:17:52 51°13.651 2°55.904 2.6 176 11.7 100000 79
2004-05-07 07:17:57 51°13.653 2°55.894 3.8 176 11.7 100000 79
2004-05-07 07:18:02 51°13.655 2°55.884 3.4 200 11.8 100000 80
2004-05-07 07:18:07 51°13.657 2°55.873 5.8 216 11.8 100000 80
2004-05-07 07:18:11 51°13.659 2°55.865 6.2 217 11.9 100000 80
2004-05-07 07:18:17 51°13.661 2°55.852 6.6 217 11.9 100000 80
2004-05-07 07:18:22 51°13.662 2°55.842 7 216 11.9 100000 80
2004-05-07 07:18:26 51°13.663 2°55.833 5.2 217 11.9 100000 80
2004-05-07 07:18:32 51°13.665 2°55.821 6.3 212 11.9 100000 79
2004-05-07 07:18:37 51°13.666 2°55.811 6.2 229 11.9 100000 79
2004-05-07 07:18:42 51°13.666 2°55.803 4.8 229 11.8 100010 78
2004-05-07 07:18:46 51°13.667 2°55.797 3.8 238 11.8 100010 78
2004-05-07 07:18:52 51°13.667 2°55.789 4.1 240 11.8 100000 78
2004-05-07 07:18:56 51°13.667 2°55.785 4.9 240 11.8 100000 78
2004-05-07 07:19:01 51°13.668 2°55.782 3.8 256 11.8 100000 78
2004-05-07 07:19:05 51°13.668 2°55.782 4.9 266 11.8 100000 78
2004-05-07 07:19:11 51°13.669 2°55.784 5.9 275 11.7 100000 78
2004-05-07 07:19:16 51°13.67 2°55.787 5.1 290 11.7 100000 78
2004-05-07 07:19:21 51°13.672 2°55.789 4.5 282 11.7 100000 78
2004-05-07 07:19:26 51°13.673 2°55.791 3.1 288 11.7 100000 78
2004-05-07 07:19:31 51°13.674 2°55.792 2.7 285 11.7 99990 78
2004-05-07 07:19:36 51°13.674 2°55.791 3.2 273 11.7 99990 78
2004-05-07 07:19:41 51°13.674 2°55.79 3.1 278 11.7 99990 78
2004-05-07 07:19:46 51°13.673 2°55.787 3.1 274 11.7 99990 78
2004-05-07 07:19:50 51°13.672 2°55.785 3.1 271 11.7 99990 78
2004-05-07 07:19:57 51°13.67 2°55.78 3.2 268 11.7 99990 78
2004-05-07 07:20:02 51°13.668 2°55.777 2.7 259 11.7 100000 78
2004-05-07 07:20:07 51°13.667 2°55.774 4 292 11.7 100000 78
2004-05-07 07:20:12 51°13.667 2°55.773 4.2 299 11.7 100000 78
2004-05-07 07:20:17 51°13.668 2°55.773 3.3 310 11.7 100000 78
2004-05-07 07:20:22 51°13.67 2°55.774 3.4 312 11.7 100000 78
2004-05-07 07:20:26 51°13.672 2°55.774 4.3 332 11.7 100000 78
2004-05-07 07:20:32 51°13.677 2°55.774 6 340 11.7 100000 78
2004-05-07 07:20:37 51°13.682 2°55.773 5 357 11.7 100000 78
2004-05-07 07:20:41 51°13.686 2°55.77 5.8 3 11.7 99990 78
2004-05-07 07:20:46 51°13.692 2°55.766 5.3 2 11.7 99990 78
2004-05-07 07:20:50 51°13.696 2°55.762 6.2 359 11.7 100000 78
2004-05-07 07:20:56 51°13.703 2°55.754 5.5 25 11.7 100000 78
2004-05-07 07:21:01 51°13.708 2°55.748 6.2 17 11.7 99990 78
2004-05-07 07:21:06 51°13.714 2°55.74 5.2 6 11.7 99990 78
2004-05-07 07:21:11 51°13.722 2°55.734 5.8 1 11.7 99990 78
2004-05-07 07:21:16 51°13.729 2°55.726 6.2 360 11.7 99990 78
2004-05-07 07:21:21 51°13.737 2°55.719 6.2 355 11.7 100000 78
2004-05-07 07:21:26 51°13.746 2°55.711 5.6 336 11.7 100000 78
2004-05-07 07:21:30 51°13.753 2°55.705 6.3 8 11.6 99990 78
2004-05-07 07:21:36 51°13.764 2°55.696 7 4 11.6 99990 78
2004-05-07 07:21:41 51°13.774 2°55.688 6.7 9 11.7 99990 78
2004-05-07 07:21:46 51°13.784 2°55.68 6.7 6 11.7 99990 78
2004-05-07 07:21:50 51°13.793 2°55.673 6.5 358 11.6 99990 78
2004-05-07 07:21:56 51°13.805 2°55.664 7.1 356 11.6 99990 78
2004-05-07 07:22:01 51°13.816 2°55.656 7.5 357 11.6 99990 78
2004-05-07 07:22:06 51°13.827 2°55.649 7.2 345 11.6 99990 78
2004-05-07 07:22:10 51°13.835 2°55.643 7.2 5 11.6 99990 78
2004-05-07 07:22:16 51°13.848 2°55.634 7 6 11.6 99990 78
2004-05-07 07:22:21 51°13.859 2°55.626 8.1 4 11.6 99990 78
2004-05-07 07:22:25 51°13.867 2°55.62 8.4 1 11.6 99990 78
2004-05-07 07:22:30 51°13.878 2°55.612 9.4 359 11.6 99990 78
2004-05-07 07:22:36 51°13.891 2°55.603 8.9 355 11.6 99990 78
2004-05-07 07:22:41 51°13.902 2°55.595 8.9 357 11.6 99990 78
2004-05-07 07:22:46 51°13.913 2°55.587 7.7 344 11.6 99990 78
2004-05-07 07:22:50 51°13.921 2°55.581 7.1 344 11.5 99990 78
2004-05-07 07:22:56 51°13.935 2°55.572 7.9 352 11.5 99990 78
2004-05-07 07:23:01 51°13.946 2°55.564 7.5 356 11.5 99990 77
2004-05-07 07:23:06 51°13.957 2°55.556 7.4 347 11.5 99990 77
2004-05-07 07:23:10 51°13.965 2°55.549 6.6 352 11.4 99980 77
2004-05-07 07:23:16 51°13.979 2°55.539 6.9 354 11.4 99980 77
2004-05-07 07:23:21 51°13.99 2°55.531 6.1 351 11.4 99990 77
2004-05-07 07:23:26 51°14.001 2°55.523 7.1 352 11.4 99990 77
2004-05-07 07:23:31 51°14.012 2°55.515 7.1 356 11.4 99990 78
2004-05-07 07:23:36 51°14.023 2°55.506 8.3 353 11.4 99990 78
2004-05-07 07:23:41 51°14.035 2°55.498 8.2 350 11.4 99990 78
2004-05-07 07:23:46 51°14.045 2°55.488 8.1 347 11.4 99990 78
2004-05-07 07:23:50 51°14.054 2°55.481 8.2 356 11.5 99990 78
2004-05-07 07:23:56 51°14.067 2°55.471 7.1 353 11.5 99990 78
2004-05-07 07:24:01 51°14.079 2°55.462 9 349 11.4 99990 78
2004-05-07 07:24:06 51°14.09 2°55.453 9 349 11.4 99990 78
2004-05-07 07:24:10 51°14.099 2°55.446 8.6 352 11.4 99990 78
2004-05-07 07:24:16 51°14.113 2°55.434 9.5 349 11.4 99990 78
2004-05-07 07:24:21 51°14.125 2°55.424 8.9 351 11.5 99990 78
2004-05-07 07:24:26 51°14.137 2°55.414 8.5 353 11.5 99990 78
2004-05-07 07:24:31 51°14.148 2°55.402 9.2 356 11.5 99990 78
2004-05-07 07:24:36 51°14.16 2°55.391 9.7 352 11.5 99990 78
2004-05-07 07:24:41 51°14.172 2°55.379 8.9 353 11.4 99990 78
2004-05-07 07:24:45 51°14.182 2°55.369 7.4 356 11.4 99990 78
2004-05-07 07:24:51 51°14.196 2°55.353 7.2 357 11.4 99990 78
2004-05-07 07:24:56 51°14.208 2°55.34 9 344 11.4 99990 78
2004-05-07 07:25:01 51°14.219 2°55.326 9.3 345 11.4 99980 78
2004-05-07 07:25:06 51°14.23 2°55.311 9 360 11.4 99980 78
2004-05-07 07:25:10 51°14.239 2°55.299 9.1 354 11.4 99980 78
2004-05-07 07:25:16 51°14.253 2°55.28 8.9 358 11.4 99980 78
2004-05-07 07:25:21 51°14.263 2°55.263 8.7 1 11.4 99990 78
2004-05-07 07:25:26 51°14.273 2°55.246 9.7 355 11.4 99990 78
2004-05-07 07:25:30 51°14.281 2°55.231 10.1 355 11.4 99980 78
2004-05-07 07:25:36 51°14.293 2°55.208 9.7 360 11.4 99980 78
2004-05-07 07:25:41 51°14.302 2°55.189 9.7 358 11.4 99990 78
2004-05-07 07:25:46 51°14.312 2°55.169 9.9 357 11.4 99990 78
2004-05-07 07:25:50 51°14.319 2°55.153 10 355 11.4 99990 78
2004-05-07 07:25:56 51°14.33 2°55.128 9.7 355 11.4 99990 78
2004-05-07 07:26:01 51°14.339 2°55.107 10.5 354 11.3 99980 78
2004-05-07 07:26:06 51°14.349 2°55.086 10.7 356 11.3 99980 78
2004-05-07 07:26:11 51°14.358 2°55.065 10.1 357 11.3 99980 78
2004-05-07 07:26:16 51°14.366 2°55.042 10.8 5 11.3 99980 78
2004-05-07 07:26:21 51°14.375 2°55.019 11   11.3 99990 78
2004-05-07 07:26:26 51°14.383 2°54.994 11.1 5 11.3 99990 78
2004-05-07 07:26:30 51°14.39 2°54.974 11.2 2 11.3 99980 78
2004-05-07 07:26:36 51°14.399 2°54.943 12.2 2 11.3 99980 78
2004-05-07 07:26:41 51°14.406 2°54.916 12.2 2 11.3 99980 78
2004-05-07 07:26:46 51°14.412 2°54.888 12.4 1 11.3 99980 78
2004-05-07 07:26:50 51°14.418 2°54.866 12.2 6 11.3 99990 78
2004-05-07 07:26:57 51°14.425 2°54.825 11.6 6 11.3 99990 78
2004-05-07 07:27:01 51°14.428 2°54.801 12 11 11.3 99980 78
2004-05-07 07:27:06 51°14.429 2°54.771 11.7 10 11.3 99980 78
2004-05-07 07:27:10 51°14.429 2°54.746 11.5 12 11.3 99980 78
2004-05-07 07:27:16 51°14.428 2°54.709 11.3 12 11.3 99980 78
2004-05-07 07:27:21 51°14.427 2°54.678 11.2 13 11.3 99980 79
2004-05-07 07:27:26 51°14.425 2°54.647 11.7 11 11.3 99980 79
2004-05-07 07:27:30 51°14.423 2°54.622 11.4 12 11.3 99990 79
2004-05-07 07:27:36 51°14.42 2°54.585 11.6 15 11.3 99990 79
2004-05-07 07:27:41 51°14.416 2°54.554 11.4 17 11.3 99980 79
2004-05-07 07:27:46 51°14.411 2°54.524 11.7 18 11.3 99980 79
2004-05-07 07:27:51 51°14.405 2°54.493 11.7 17 11.2 99990 79
2004-05-07 07:27:56 51°14.4 2°54.463 10.6 20 11.2 99990 79
2004-05-07 07:28:01 51°14.393 2°54.433 11.1 20 11.2 99990 79
2004-05-07 07:28:06 51°14.387 2°54.403 11.3 19 11.2 99990 79
2004-05-07 07:28:10 51°14.382 2°54.38 10.8 18 11.2 99990 79
2004-05-07 07:28:16 51°14.375 2°54.344 11.1 18 11.2 99990 79
2004-05-07 07:28:21 51°14.369 2°54.315 11.3 21 11.2 99990 79
2004-05-07 07:28:26 51°14.362 2°54.285 10.9 21 11.2 99990 79
2004-05-07 07:28:30 51°14.357 2°54.262 11.2 18 11.2 99990 79
2004-05-07 07:28:36 51°14.35 2°54.226 11.2 20 11.2 99990 79
2004-05-07 07:28:41 51°14.343 2°54.197 11.6 19 11.2 99990 79
2004-05-07 07:28:46 51°14.337 2°54.168 11 20 11.2 99990 79
2004-05-07 07:28:51 51°14.329 2°54.139 10.9 22 11.3 99990 80
2004-05-07 07:28:56 51°14.32 2°54.111 11.5 22 11.3 99990 80
2004-05-07 07:29:01 51°14.311 2°54.084 10.7 23 11.3 99990 80
2004-05-07 07:29:06 51°14.301 2°54.057 11.1 26 11.3 99990 80
2004-05-07 07:29:11 51°14.291 2°54.03 11 27 11.3 99990 80
2004-05-07 07:29:16 51°14.28 2°54.003 10.3 27 11.3 99990 80
2004-05-07 07:29:21 51°14.27 2°53.977 10.8 26 11.3 99990 80
2004-05-07 07:29:25 51°14.262 2°53.956 10.9 25 11.3 99990 80
2004-05-07 07:29:30 51°14.251 2°53.929 10.9 27 11.3 99990 80
2004-05-07 07:29:36 51°14.239 2°53.897 10.6 22 11.3 99990 80
2004-05-07 07:29:41 51°14.231 2°53.868 10.7 22 11.2 99990 80
2004-05-07 07:29:46 51°14.223 2°53.84 10.7 20 11.2 99990 80
2004-05-07 07:29:50 51°14.217 2°53.816 10.2 21 11.2 99990 80
2004-05-07 07:29:56 51°14.208 2°53.782 10.9 16 11.2 99990 80
2004-05-07 07:30:01 51°14.199 2°53.754 10.7 22 11.2 99990 80
2004-05-07 07:30:06 51°14.189 2°53.727 11.2 21 11.2 99990 80
2004-05-07 07:30:10 51°14.18 2°53.706 10.9 28 11.2 99990 80
2004-05-07 07:30:16 51°14.166 2°53.676 11.1 26 11.2 99990 80
2004-05-07 07:30:21 51°14.154 2°53.651 10.6 26 11.2 100000 80
2004-05-07 07:30:26 51°14.141 2°53.626 11.3 27 11.2 100000 80
2004-05-07 07:30:31 51°14.129 2°53.602 10.2 29 11.2 99990 80
2004-05-07 07:30:36 51°14.117 2°53.577 11.1 31 11.2 99990 80
2004-05-07 07:30:41 51°14.105 2°53.553 11.3 30 11.2 99990 80
2004-05-07 07:30:46 51°14.093 2°53.527 11.3 26 11.2 99990 80
2004-05-07 07:30:50 51°14.084 2°53.507 10.6 24 11.2 99990 80
2004-05-07 07:30:56 51°14.07 2°53.476 11.1 32 11.2 99990 80
2004-05-07 07:31:01 51°14.059 2°53.45 11.2 28 11.2 99980 80
2004-05-07 07:31:06 51°14.048 2°53.424 11 24 11.2 99980 80
2004-05-07 07:31:11 51°14.036 2°53.398 11.4 28 11.2 99990 80
2004-05-07 07:31:16 51°14.024 2°53.373 11 27 11.2 99990 80
2004-05-07 07:31:21 51°14.012 2°53.348 11.1 28 11.2 99990 81
2004-05-07 07:31:26 51°14 2°53.323 10.5 26 11.2 99990 81
2004-05-07 07:31:31 51°13.987 2°53.298 11.2 23 11.2 99990 81
2004-05-07 07:31:36 51°13.975 2°53.273 10.7 24 11.2 99990 81
2004-05-07 07:31:41 51°13.963 2°53.248 11.3 26 11.2 99990 81
2004-05-07 07:31:46 51°13.951 2°53.222 10.9 28 11.2 99990 81
2004-05-07 07:31:51 51°13.94 2°53.195 10.7 28 11.2 99990 81
2004-05-07 07:31:56 51°13.929 2°53.168 10.7 25 11.2 99990 81
2004-05-07 07:32:01 51°13.919 2°53.141 10.3 24 11.1 99990 81
2004-05-07 07:32:06 51°13.908 2°53.114 10.8 27 11.1 99990 81
2004-05-07 07:32:11 51°13.897 2°53.088 10.9 28 11.1 99990 80
2004-05-07 07:32:16 51°13.884 2°53.062 11.2 25 11.1 99990 80
2004-05-07 07:32:21 51°13.872 2°53.038 10.8 27 11.1 99990 80
2004-05-07 07:32:25 51°13.861 2°53.018 10.3 30 11.1 99990 80
2004-05-07 07:32:31 51°13.845 2°52.99 10.7 33 11.1 99990 80
2004-05-07 07:32:35 51°13.834 2°52.971 10.2 30 11.1 99990 80
2004-05-07 07:32:41 51°13.818 2°52.942 10.4 31 11.1 99990 80
2004-05-07 07:32:46 51°13.806 2°52.916 10 30 11.1 99990 80
2004-05-07 07:32:51 51°13.794 2°52.891 10.9 30 11.1 99990 80
2004-05-07 07:32:56 51°13.782 2°52.864 10.2 30 11.1 99990 80
2004-05-07 07:33:01 51°13.77 2°52.838 10.7 28 11.1 99990 80
2004-05-07 07:33:06 51°13.759 2°52.811 11.1 25 11.1 99990 80
2004-05-07 07:33:12 51°13.746 2°52.779 10.9 24 11 99990 80
2004-05-07 07:33:16 51°13.737 2°52.757 11 24 11 99990 80
2004-05-07 07:33:21 51°13.728 2°52.729 10.8 25 11 99990 80
2004-05-07 07:33:26 51°13.718 2°52.701 10.4 28 11 99990 80
2004-05-07 07:33:31 51°13.708 2°52.673 11.2 27 11 99990 80
2004-05-07 07:33:36 51°13.697 2°52.645 11 26 11 99990 80
2004-05-07 07:33:41 51°13.687 2°52.616 11 25 11 99990 80
2004-05-07 07:33:46 51°13.677 2°52.589 11.5 23 11 99990 80
2004-05-07 07:33:51 51°13.666 2°52.561 11.4 24 11 99990 80
2004-05-07 07:33:56 51°13.655 2°52.533 11 26 11 99990 80
2004-05-07 07:34:01 51°13.644 2°52.506 10.7 23 11 99990 80
2004-05-07 07:34:06 51°13.633 2°52.48 11.1 25 11 99990 80
2004-05-07 07:34:10 51°13.623 2°52.459 11.5 25 11.1 99990 80
2004-05-07 07:34:16 51°13.609 2°52.427 10.4 26 11.1 99990 80
2004-05-07 07:34:21 51°13.597 2°52.401 10.8 26 11.1 99990 80
2004-05-07 07:34:26 51°13.585 2°52.375 11.6 24 11.1 99990 80
2004-05-07 07:34:31 51°13.573 2°52.349 11.7 24 11.1 99990 80
2004-05-07 07:34:36 51°13.562 2°52.322 10.7 24 11.1 99990 80
2004-05-07 07:34:41 51°13.551 2°52.294 11.5 23 11.1 99990 81
2004-05-07 07:34:46 51°13.541 2°52.266 11.5 20 11.1 99990 81
2004-05-07 07:34:50 51°13.534 2°52.243 11.4 14 11.1 99990 81
2004-05-07 07:34:56 51°13.523 2°52.208 11.3 17 11.1 99990 81
2004-05-07 07:35:01 51°13.515 2°52.179 11.5 19 11.1 99990 80
2004-05-07 07:35:06 51°13.506 2°52.15 10.8 18 11.1 99990 80
2004-05-07 07:35:10 51°13.499 2°52.127 11.1 20 11.1 99990 80
2004-05-07 07:35:15 51°13.49 2°52.098 11.6 23 11.1 99990 80
2004-05-07 07:35:21 51°13.479 2°52.063 11.3 20 11.2 99990 80
2004-05-07 07:35:26 51°13.469 2°52.035 11.2 24 11.2 99990 80
2004-05-07 07:35:30 51°13.461 2°52.013 11.1 26 11.1 99990 80
2004-05-07 07:35:36 51°13.448 2°51.98 11 23 11.1 99990 80
2004-05-07 07:35:41 51°13.437 2°51.953 10.5 25 11.1 99990 80
2004-05-07 07:35:46 51°13.426 2°51.925 11.4 25 11.1 99990 80
2004-05-07 07:35:51 51°13.415 2°51.898 10.1 23 11.1 99990 80
2004-05-07 07:35:56 51°13.405 2°51.871 10.7 22 11.1 99990 80
2004-05-07 07:36:01 51°13.394 2°51.843 11.3 22 11.1 99990 80
2004-05-07 07:36:06 51°13.384 2°51.815 10.8 20 11.1 99990 80
2004-05-07 07:36:11 51°13.375 2°51.786 11.3 23 11.1 99990 80
2004-05-07 07:36:16 51°13.365 2°51.758 11.1 23 11.1 99990 80
2004-05-07 07:36:21 51°13.356 2°51.729 11 22 11.1 99990 80
2004-05-07 07:36:26 51°13.347 2°51.7 10.6 21 11.1 99990 80
2004-05-07 07:36:31 51°13.338 2°51.671 10.6 20 11.1 99990 80
2004-05-07 07:36:36 51°13.329 2°51.643 11 23 11.1 99990 80
2004-05-07 07:36:41 51°13.32 2°51.614 11 21 11.1 99990 80
2004-05-07 07:36:46 51°13.31 2°51.585 10.3 25 11.1 99990 80
2004-05-07 07:36:50 51°13.302 2°51.563 10.2 24 11.1 99990 80
2004-05-07 07:36:56 51°13.29 2°51.529 11.3 23 11.1 99990 80
2004-05-07 07:37:01 51°13.28 2°51.501 11.4 23 11.1 99990 80
2004-05-07 07:37:06 51°13.269 2°51.473 11 24 11.1 99990 80
2004-05-07 07:37:10 51°13.261 2°51.451 10.9 25 11.1 99990 80
2004-05-07 07:37:16 51°13.248 2°51.417 10.9 23 11.1 99990 80
2004-05-07 07:37:21 51°13.238 2°51.39 11.6 24 11.1 99990 80
2004-05-07 07:37:26 51°13.228 2°51.361 11.9 22 11.1 99990 80
2004-05-07 07:37:30 51°13.22 2°51.338 11.4 24 11.1 99990 80
2004-05-07 07:37:36 51°13.209 2°51.303 10.9 22 11.1 99990 80
2004-05-07 07:37:41 51°13.2 2°51.274 11.3 20 11.1 99990 80
2004-05-07 07:37:46 51°13.191 2°51.245 11.7 22 11.1 99990 80
2004-05-07 07:37:50 51°13.184 2°51.221 11.4 19 11.1 99990 80
2004-05-07 07:37:56 51°13.174 2°51.186 11.5 23 11.1 99990 80
2004-05-07 07:38:01 51°13.164 2°51.157 11.8 23 11.1 99990 80
2004-05-07 07:38:06 51°13.155 2°51.128 11.3 25 11.1 99990 80
2004-05-07 07:38:10 51°13.147 2°51.105 11.3 23 11.1 99990 80
2004-05-07 07:38:16 51°13.134 2°51.072 11.9 22 11.1 99990 80
2004-05-07 07:38:21 51°13.124 2°51.044 11.4 24 11.1 99990 80
2004-05-07 07:38:26 51°13.112 2°51.017 11.1 27 11.1 99990 80
2004-05-07 07:38:30 51°13.103 2°50.996 11.6 25 11.1 99990 80
2004-05-07 07:38:36 51°13.088 2°50.964 12.1 27 11.1 99990 80
2004-05-07 07:38:41 51°13.076 2°50.938 11.3 27 11.1 99990 81
2004-05-07 07:38:46 51°13.064 2°50.911 11.4 26 11.1 99990 81
2004-05-07 07:38:50 51°13.054 2°50.89 11 29 11.1 99990 81
2004-05-07 07:38:56 51°13.041 2°50.858 11.8 26 11.1 99990 81
2004-05-07 07:39:01 51°13.029 2°50.83 11.2 27 11.1 99990 81
2004-05-07 07:39:06 51°13.018 2°50.803 10.7 26 11.1 99990 81
2004-05-07 07:39:11 51°13.008 2°50.775 11.2 26 11.1 99990 81
2004-05-07 07:39:16 51°12.997 2°50.747 10.9 22 11.1 99990 81
2004-05-07 07:39:21 51°12.987 2°50.72 11 23 11.1 99990 81
2004-05-07 07:39:25 51°12.978 2°50.698 11.9 25 11.1 99990 81
2004-05-07 07:39:31 51°12.965 2°50.665 11.6 22 11.1 99990 81
2004-05-07 07:39:35 51°12.955 2°50.643 12 23 11.1 99990 81
2004-05-07 07:39:41 51°12.942 2°50.611 11.6 25 11.1 99990 81
2004-05-07 07:39:46 51°12.93 2°50.585 11.5 22 11.1 99990 81
2004-05-07 07:39:50 51°12.92 2°50.564 11.3 23 11.2 99990 81
2004-05-07 07:39:56 51°12.905 2°50.533 11.7 22 11.2 99990 81
2004-05-07 07:40:01 51°12.894 2°50.506 11.4 24 11.2 99990 81
2004-05-07 07:40:06 51°12.883 2°50.479 11.2 25 11.2 99990 81
2004-05-07 07:40:11 51°12.872 2°50.452 10.8 19 11.2 99990 81
2004-05-07 07:40:16 51°12.861 2°50.424 12 23 11.2 99990 81
2004-05-07 07:40:21 51°12.851 2°50.396 11.4 23 11.2 99990 81
2004-05-07 07:40:26 51°12.84 2°50.369 11 23 11.2 99990 81
2004-05-07 07:40:31 51°12.83 2°50.341 11.2 21 11.1 99990 81
2004-05-07 07:40:36 51°12.819 2°50.313 10.8 24 11.1 99990 81
2004-05-07 07:40:41 51°12.808 2°50.286 10.9 25 11.2 99990 81
2004-05-07 07:40:46 51°12.797 2°50.26 11 25 11.2 99990 81
2004-05-07 07:40:51 51°12.785 2°50.233 11.5 26 11.1 99990 81
2004-05-07 07:40:56 51°12.773 2°50.207 11.1 27 11.1 99990 81
2004-05-07 07:41:01 51°12.761 2°50.181 10.7 26 11.1 99990 82
2004-05-07 07:41:06 51°12.749 2°50.155 11.2 28 11.1 99990 82
2004-05-07 07:41:10 51°12.74 2°50.134 10.8 28 11.1 99990 81
2004-05-07 07:41:16 51°12.726 2°50.103 10.9 28 11.1 99990 81
2004-05-07 07:41:21 51°12.714 2°50.076 10.8 25 11.1 99990 81
2004-05-07 07:41:26 51°12.703 2°50.05 10.8 26 11.1 99990 81
2004-05-07 07:41:30 51°12.694 2°50.028 10.6 22 11.1 99990 81
2004-05-07 07:41:36 51°12.682 2°49.995 11.3 23 11.1 99990 81
2004-05-07 07:41:41 51°12.671 2°49.968 11.2 22 11.1 99990 81
2004-05-07 07:41:46 51°12.661 2°49.94 11 20 11.1 99990 81
2004-05-07 07:41:51 51°12.651 2°49.912 11 24 11.1 100000 81
2004-05-07 07:41:56 51°12.641 2°49.885 11.1 24 11.1 100000 81
2004-05-07 07:42:01 51°12.63 2°49.858 11 26 11.1 100000 82
2004-05-07 07:42:06 51°12.619 2°49.831 11 26 11.1 100000 82
2004-05-07 07:42:10 51°12.61 2°49.81 10.2 26 11.1 99990 82
2004-05-07 07:42:16 51°12.595 2°49.779 10.9 27 11.1 99990 82
2004-05-07 07:42:21 51°12.583 2°49.753 10.8 28 11.1 99990 82
2004-05-07 07:42:26 51°12.571 2°49.728 10.9 21 11.1 99990 82
2004-05-07 07:42:30 51°12.561 2°49.708 11.1 23 11.1 99990 82
2004-05-07 07:42:36 51°12.547 2°49.677 11.4 25 11.1 99990 82
2004-05-07 07:42:41 51°12.535 2°49.652 11.4 27 11.1 100000 82
2004-05-07 07:42:46 51°12.523 2°49.626 11.4 22 11.1 100000 82
2004-05-07 07:42:50 51°12.515 2°49.604 11.6 20 11.1 99990 82
2004-05-07 07:42:56 51°12.503 2°49.571 11.4 18 11.1 99990 82
2004-05-07 07:43:01 51°12.494 2°49.542 11.8 20 11.1 99990 82
2004-05-07 07:43:06 51°12.485 2°49.514 11.8 18 11.1 99990 82
2004-05-07 07:43:10 51°12.478 2°49.491 12 18 11.1 99990 82
2004-05-07 07:43:16 51°12.468 2°49.457 11.9 21 11.1 99990 82
2004-05-07 07:43:21 51°12.46 2°49.428 11.9 21 11.1 99990 82
2004-05-07 07:43:26 51°12.451 2°49.4 11.2 23 11.1 99990 82
2004-05-07 07:43:30 51°12.444 2°49.377 11.2 24 11.1 100000 82
2004-05-07 07:43:36 51°12.432 2°49.343 11.4 21 11.1 100000 82
2004-05-07 07:43:41 51°12.422 2°49.315 11.2 23 11.1 99990 82
2004-05-07 07:43:46 51°12.412 2°49.288 11.8 24 11.1 99990 82
2004-05-07 07:43:50 51°12.403 2°49.266 11.3 24 11.1 99990 82
2004-05-07 07:43:56 51°12.39 2°49.234 11 25 11.1 99990 82
2004-05-07 07:44:01 51°12.379 2°49.208 10.9 24 11.1 99990 82
2004-05-07 07:44:06 51°12.368 2°49.181 11.4 22 11.1 99990 82
2004-05-07 07:44:10 51°12.359 2°49.16 11.1 22 11.1 100000 82
2004-05-07 07:44:16 51°12.346 2°49.128 11.3 25 11.1 100000 82
2004-05-07 07:44:21 51°12.336 2°49.1 11.6 24 11.1 99990 82
2004-05-07 07:44:26 51°12.326 2°49.072 10.8 21 11.1 99990 82
2004-05-07 07:44:30 51°12.318 2°49.05 10.9 21 11.1 99990 82
2004-05-07 07:44:36 51°12.308 2°49.016 12.1 18 11.1 99990 82
2004-05-07 07:44:41 51°12.3 2°48.987 11.4 18 11.1 100000 82
2004-05-07 07:44:46 51°12.291 2°48.958 11.3 21 11.1 100000 82
2004-05-07 07:44:50 51°12.284 2°48.935 11.8 19 11.1 100000 82
2004-05-07 07:44:56 51°12.274 2°48.901 11.3 21 11.1 100000 82
2004-05-07 07:45:01 51°12.264 2°48.873 11.3 20 11.1 100000 82
2004-05-07 07:45:06 51°12.255 2°48.845 11.7 21 11.1 100000 82
2004-05-07 07:45:11 51°12.244 2°48.818 11.4 25 11.1 99990 82
2004-05-07 07:45:16 51°12.234 2°48.79 11.1 25 11.1 99990 82
2004-05-07 07:45:21 51°12.223 2°48.764 12 26 11 100000 82
2004-05-07 07:45:26 51°12.212 2°48.737 10.8 25 11 100000 82
2004-05-07 07:45:30 51°12.203 2°48.716 11.3 26 11 99990 82
2004-05-07 07:45:36 51°12.19 2°48.684 11.2 26 11 99990 82
2004-05-07 07:45:41 51°12.179 2°48.657 11.3 25 11 100000 82
2004-05-07 07:45:46 51°12.169 2°48.629 12.1 21 11 100000 82
2004-05-07 07:45:51 51°12.159 2°48.602 12.2 21 11 100000 82
2004-05-07 07:45:56 51°12.15 2°48.573 11.4 22 11 100000 82
2004-05-07 07:46:01 51°12.141 2°48.545 12 20 11 99990 82
2004-05-07 07:46:06 51°12.133 2°48.516 11.8 22 11 99990 82
2004-05-07 07:46:11 51°12.125 2°48.488 11.5 21 11 99990 82
2004-05-07 07:46:16 51°12.116 2°48.459 12.1 22 11 99990 82
2004-05-07 07:46:21 51°12.107 2°48.43 11.7 24 11 100000 82
2004-05-07 07:46:26 51°12.098 2°48.402 11.4 20 11 100000 82
2004-05-07 07:46:30 51°12.091 2°48.379 11.7 20 11 100000 82
2004-05-07 07:46:36 51°12.079 2°48.346 12.4 25 11 100000 82
2004-05-07 07:46:41 51°12.069 2°48.319 11.6 24 11 100000 82
2004-05-07 07:46:46 51°12.058 2°48.292 11.1 26 11 100000 82
2004-05-07 07:46:50 51°12.05 2°48.271 11.1 25 11 99990 82
2004-05-07 07:46:56 51°12.036 2°48.239 11.9 24 11 99990 82
2004-05-07 07:47:01 51°12.025 2°48.213 11.9 25 11 99990 82
2004-05-07 07:47:06 51°12.014 2°48.186 11 25 11 99990 82
2004-05-07 07:47:11 51°12.003 2°48.16 11.2 25 11 100000 82
2004-05-07 07:47:16 51°11.993 2°48.133 10.8 25 11 100000 82
2004-05-07 07:47:21 51°11.983 2°48.106 11.1 24 11.1 100000 82
2004-05-07 07:47:25 51°11.975 2°48.084 11.4 24 11.1 100000 82
2004-05-07 07:47:30 51°11.966 2°48.056 11.5 24 11.1 100000 82
2004-05-07 07:47:36 51°11.955 2°48.022 11.6 24 11.1 100000 82
2004-05-07 07:47:41 51°11.947 2°47.994 11.4 24 11 100000 82
2004-05-07 07:47:46 51°11.938 2°47.966 12.1 21 11 100000 82
2004-05-07 07:47:51 51°11.929 2°47.937 11.8 22 11.1 100000 82
2004-05-07 07:47:56 51°11.921 2°47.909 12.1 22 11.1 100000 82
2004-05-07 07:48:01 51°11.912 2°47.881 11.9 21 11.1 99990 82
2004-05-07 07:48:06 51°11.903 2°47.852 11.6 23 11.1 99990 82
2004-05-07 07:48:11 51°11.894 2°47.825 11.5 23 11.1 100000 82
2004-05-07 07:48:14 51°11.888 2°47.808 11.7 23 11.1 100000 82
2004-05-07 07:48:21 51°11.874 2°47.77 11.2 25 11 100000 82
2004-05-07 07:48:26 51°11.864 2°47.745 10.1 27 11 100000 82
2004-05-07 07:48:31 51°11.853 2°47.722 10.8 27 11 99990 82
2004-05-07 07:48:36 51°11.842 2°47.7 10.4 30 11 99990 82
2004-05-07 07:48:41 51°11.831 2°47.68 9.9 31 11 100000 82
2004-05-07 07:48:46 51°11.82 2°47.66 10.1 30 11 100000 82
2004-05-07 07:48:51 51°11.812 2°47.64 9.7 30 11 100000 82
2004-05-07 07:48:56 51°11.805 2°47.62 9.9 26 11 100000 82
2004-05-07 07:49:01 51°11.799 2°47.601 8.7 26 11 100000 82
2004-05-07 07:49:06 51°11.794 2°47.583 8.9 20 11 100000 82
2004-05-07 07:49:12 51°11.789 2°47.562 8.4 23 11 100000 82
2004-05-07 07:49:16 51°11.786 2°47.55 7.9 23 11 100000 82
2004-05-07 07:49:21 51°11.784 2°47.535 8.1 19 11 100000 82
2004-05-07 07:49:26 51°11.781 2°47.522 7.6 24 11 100000 82
2004-05-07 07:49:30 51°11.779 2°47.513 7.2 22 11 100000 82
2004-05-07 07:49:36 51°11.777 2°47.5 6.8 29 11 100000 82
2004-05-07 07:49:41 51°11.775 2°47.492 6.3 31 11.1 100000 82
2004-05-07 07:49:46 51°11.772 2°47.485 5.7 43 11.1 100000 82
2004-05-07 07:49:50 51°11.771 2°47.481 5.5 48 11.1 100010 82
2004-05-07 07:49:56 51°11.769 2°47.476 5.3 61 11.1 100010 82
2004-05-07 07:50:01 51°11.768 2°47.473 5.2 58 11.1 100010 82
2004-05-07 07:50:06 51°11.767 2°47.472 4.8 63 11.1 100010 82
2004-05-07 07:50:10 51°11.766 2°47.471 4.8 63 11 100010 82
2004-05-07 07:50:16 51°11.766 2°47.47 4 82 11 100010 82
2004-05-07 07:50:21 51°11.767 2°47.471 3.9 76 11.1 100010 82
2004-05-07 07:50:26 51°11.767 2°47.471 4.3 80 11.1 100010 82
2004-05-07 07:50:32 51°11.767 2°47.471 4.6 82 11 100010 82
2004-05-07 07:50:37 51°11.768 2°47.471 4.2 79 11 100010 82
2004-05-07 07:50:42 51°11.768 2°47.471 4.4 80 11.1 100010 82
2004-05-07 07:50:46 51°11.768 2°47.471 5 85 11.1 100010 82
2004-05-07 07:50:52 51°11.768 2°47.47 5.2 88 11.1 100010 82
2004-05-07 07:50:57 51°11.769 2°47.469 5.2 89 11.1 100010 82
2004-05-07 07:51:02 51°11.769 2°47.469 5.3 90 11.1 100010 82
2004-05-07 07:51:07 51°11.769 2°47.468 5 92 11.1 100010 82
2004-05-07 07:51:12 51°11.769 2°47.467 5.4 88 11 100010 82
2004-05-07 07:51:17 51°11.769 2°47.466 5.3 90 11 100010 82
2004-05-07 07:51:22 51°11.77 2°47.465 5.1 90 11 100010 82
2004-05-07 07:51:26 51°11.77 2°47.464 5.4 91 11 100010 82
2004-05-07 07:51:32 51°11.77 2°47.463 5.1 88 11 100010 82
2004-05-07 07:51:37 51°11.77 2°47.463 5.1 93 11 100010 82
2004-05-07 07:51:41 51°11.77 2°47.462 5.2 94 11 100010 82
2004-05-07 07:51:46 51°11.77 2°47.461 5.1 88 11 100010 82
2004-05-07 07:51:51 51°11.769 2°47.461 5.4 97 11 100010 82
2004-05-07 07:51:56 51°11.769 2°47.46 4.9 83 11 100010 82
2004-05-07 07:52:01 51°11.769 2°47.459 4.7 96 11 100010 82
2004-05-07 07:52:06 51°11.769 2°47.459 5.3 83 11 100010 82
2004-05-07 07:52:12 51°11.769 2°47.458 4.8 81 11 100010 83
2004-05-07 07:52:16 51°11.769 2°47.457 4.7 83 11 100010 83
2004-05-07 07:52:21 51°11.769 2°47.456 4.5 82 11 100010 83
2004-05-07 07:52:25 51°11.769 2°47.456 5.2 82 11 100010 83
2004-05-07 07:52:30 51°11.768 2°47.455 5.2 84 11 100010 83
2004-05-07 07:52:37 51°11.768 2°47.454 4.7 85 11 100010 83
2004-05-07 07:52:41 51°11.768 2°47.453 5 88 11.1 100010 83
2004-05-07 07:52:46 51°11.768 2°47.452 4.9 84 11.1 100010 83
2004-05-07 07:52:50 51°11.768 2°47.452 4.3 100 11.1 100010 83
2004-05-07 07:52:56 51°11.767 2°47.451 4.3 99 11.1 100010 83
2004-05-07 07:53:01 51°11.767 2°47.45 5 89 11.1 100010 83
2004-05-07 07:53:05 51°11.767 2°47.449 5.3 94 11.1 100010 83
2004-05-07 07:53:10 51°11.767 2°47.448 5.3 80 11.1 100010 84
2004-05-07 07:53:16 51°11.767 2°47.446 5.9 86 11.1 100010 84
2004-05-07 07:53:21 51°11.766 2°47.446 6.1 85 11.1 100010 84
2004-05-07 07:53:25 51°11.766 2°47.445 5.2 98 11.1 100010 84
2004-05-07 07:53:31 51°11.766 2°47.445 5.2 97 11.1 100010 84
2004-05-07 07:53:36 51°11.765 2°47.444 5.6 93 11.1 100010 84
2004-05-07 07:53:41 51°11.765 2°47.443 5.6 94 11.1 100010 83
2004-05-07 07:53:46 51°11.765 2°47.442 5.3 95 11.1 100010 83
2004-05-07 07:53:51 51°11.764 2°47.441 5.3 96 11.1 100010 84
2004-05-07 07:53:56 51°11.764 2°47.44 5.5 100 11.1 100010 84
2004-05-07 07:54:01 51°11.763 2°47.439 5.6 99 11.1 100010 83
2004-05-07 07:54:06 51°11.763 2°47.438 5.4 102 11.1 100010 83
2004-05-07 07:54:10 51°11.763 2°47.437 5.1 98 11.1 100010 83
2004-05-07 07:54:16 51°11.762 2°47.436 5.4 102 11.1 100010 83
2004-05-07 07:54:21 51°11.762 2°47.435 4.9 102 11 100010 83
2004-05-07 07:54:25 51°11.761 2°47.434 5.3 98 11 100010 83
2004-05-07 07:54:31 51°11.761 2°47.432 4.7 106 11 100010 83
2004-05-07 07:54:34 51°11.761 2°47.431 4.9 98 11 100010 83
2004-05-07 07:54:41 51°11.761 2°47.429 5.4 103 11 100010 83
2004-05-07 07:54:45 51°11.76 2°47.429 5.3 104 11 100010 83
2004-05-07 07:54:50 51°11.76 2°47.427 5.2 107 11 100020 83
2004-05-07 07:54:56 51°11.759 2°47.426 4.8 110 11 100020 83
2004-05-07 07:55:01 51°11.759 2°47.425 5.3 113 11 100020 83
2004-05-07 07:55:06 51°11.758 2°47.423 5 108 11 100020 83
2004-05-07 07:55:10 51°11.758 2°47.423 4.5 108 11 100010 83
2004-05-07 07:55:16 51°11.757 2°47.421 5.4 114 11 100010 83
2004-05-07 07:55:21 51°11.757 2°47.42 5.4 109 11 100010 83
2004-05-07 07:55:26 51°11.756 2°47.419 5.3 105 11 100010 83
2004-05-07 07:55:31 51°11.755 2°47.417 5.4 103 11 100010 83
2004-05-07 07:55:36 51°11.755 2°47.416 5.4 105 11 100010 83
2004-05-07 07:55:41 51°11.754 2°47.415 5.1 105 11 100010 83
2004-05-07 07:55:46 51°11.754 2°47.414 5.6 109 11 100010 83
2004-05-07 07:55:51 51°11.753 2°47.412 5.4 108 11 100020 83
2004-05-07 07:55:56 51°11.752 2°47.411 5.3 112 11 100020 83
2004-05-07 07:56:01 51°11.752 2°47.41 5.7 112 11 100010 83
2004-05-07 07:56:06 51°11.751 2°47.409 5.3 114 11 100010 83
2004-05-07 07:56:10 51°11.75 2°47.408 5.1 113 11 100010 83
2004-05-07 07:56:14 51°11.75 2°47.407 5.3 113 11 100010 83
2004-05-07 07:56:21 51°11.749 2°47.405 5.7 114 11 100010 83
2004-05-07 07:56:26 51°11.748 2°47.404 5.6 114 11 100010 83
2004-05-07 07:56:30 51°11.748 2°47.403 5.3 115 11 100010 83
2004-05-07 07:56:37 51°11.746 2°47.401 5.7 126 11 100010 83
2004-05-07 07:56:41 51°11.746 2°47.4 5.2 118 10.9 100020 83
2004-05-07 07:56:46 51°11.745 2°47.399 5.5 118 10.9 100020 83
2004-05-07 07:56:50 51°11.745 2°47.398 5.4 119 10.9 100020 83
2004-05-07 07:56:56 51°11.744 2°47.396 5.2 117 10.9 100020 83
2004-05-07 07:57:01 51°11.743 2°47.395 5.3 118 10.9 100010 83
2004-05-07 07:57:05 51°11.742 2°47.394 5 120 10.9 100010 83
2004-05-07 07:57:10 51°11.742 2°47.392 4.8 113 10.9 100020 83
2004-05-07 07:57:16 51°11.741 2°47.391 5.4 114 10.9 100020 83
2004-05-07 07:57:21 51°11.74 2°47.389 4.8 119 10.9 100010 83
2004-05-07 07:57:26 51°11.739 2°47.388 5.6 119 10.9 100010 83
2004-05-07 07:57:31 51°11.738 2°47.387 5.3 120 10.9 100010 83
2004-05-07 07:57:36 51°11.737 2°47.385 5.5 123 10.9 100010 83
2004-05-07 07:57:41 51°11.736 2°47.384 5.2 122 10.9 100010 83
2004-05-07 07:57:46 51°11.736 2°47.383 5.9 121 10.9 100010 83
2004-05-07 07:57:51 51°11.735 2°47.382 5.7 123 10.9 100020 83
2004-05-07 07:57:56 51°11.734 2°47.381 5.1 120 10.9 100020 83
2004-05-07 07:58:01 51°11.733 2°47.379 4.8 120 10.9 100020 83
2004-05-07 07:58:06 51°11.732 2°47.378 5.1 122 10.9 100020 83
2004-05-07 07:58:11 51°11.731 2°47.377 5.6 119 10.9 100020 83
2004-05-07 07:58:16 51°11.73 2°47.376 5.5 125 10.9 100020 83
2004-05-07 07:58:21 51°11.729 2°47.375 5.6 125 10.9 100020 83
2004-05-07 07:58:26 51°11.727 2°47.373 5.5 126 10.9 100020 83
2004-05-07 07:58:30 51°11.727 2°47.372 5.3 127 10.9 100020 83
2004-05-07 07:58:36 51°11.726 2°47.371 5.3 123 10.9 100020 83
2004-05-07 07:58:41 51°11.724 2°47.37 4.7 124 10.9 100010 82
2004-05-07 07:58:46 51°11.723 2°47.368 5.1 134 10.9 100010 82
2004-05-07 07:58:50 51°11.722 2°47.367 5.2 134 10.9 100020 82
2004-05-07 07:58:56 51°11.721 2°47.366 5.8 129 10.9 100020 82
2004-05-07 07:59:01 51°11.72 2°47.365 5.8 130 10.8 100010 82
2004-05-07 07:59:06 51°11.719 2°47.364 5.8 129 10.8 100010 82
2004-05-07 07:59:10 51°11.718 2°47.363 5.4 128 10.8 100020 82
2004-05-07 07:59:16 51°11.717 2°47.361 5.4 131 10.8 100020 82
2004-05-07 07:59:21 51°11.716 2°47.36 4.9 130 10.8 100020 82
2004-05-07 07:59:26 51°11.715 2°47.359 5.4 126 10.8 100020 82
2004-05-07 07:59:31 51°11.714 2°47.358 5.2 124 10.8 100020 82
2004-05-07 07:59:36 51°11.712 2°47.357 5.5 129 10.8 100020 82
2004-05-07 07:59:41 51°11.711 2°47.356 5.4 131 10.8 100020 82
2004-05-07 07:59:46 51°11.71 2°47.355 5.4 135 10.8 100020 82
2004-05-07 07:59:50 51°11.709 2°47.354 5.1 125 10.8 100020 82
2004-05-07 07:59:56 51°11.708 2°47.352 5.1 130 10.8 100020 82
2004-05-07 08:00:01 51°11.706 2°47.351 4.3 124 10.8 100020 82
2004-05-07 08:00:06 51°11.705 2°47.35 5.2 122 10.8 100020 82
2004-05-07 08:00:10 51°11.704 2°47.349 4.8 125 10.9 100020 82
2004-05-07 08:00:16 51°11.703 2°47.348 5.1 129 10.9 100020 82
2004-05-07 08:00:21 51°11.701 2°47.347 5.3 130 10.9 100020 82
2004-05-07 08:00:26 51°11.7 2°47.346 5.2 127 10.9 100020 82
2004-05-07 08:00:31 51°11.698 2°47.345 5.6 126 10.9 100020 82
2004-05-07 08:00:36 51°11.696 2°47.343 5.7 122 10.9 100020 82
2004-05-07 08:00:41 51°11.694 2°47.342 6 118 10.9 100010 82
2004-05-07 08:00:45 51°11.691 2°47.341 5.6 102 10.9 100010 82
2004-05-07 08:00:50 51°11.687 2°47.339 6.4 91 10.9 100020 82
2004-05-07 08:00:56 51°11.681 2°47.336 6.2 81 10.9 100020 82
2004-05-07 08:01:01 51°11.676 2°47.332 5.8 76 10.9 100020 82
2004-05-07 08:01:06 51°11.67 2°47.326 6.2 68 10.9 100020 82
2004-05-07 08:01:10 51°11.666 2°47.321 6.7 61 10.9 100020 82
2004-05-07 08:01:16 51°11.66 2°47.311 6.7 54 10.9 100020 82
2004-05-07 08:01:21 51°11.655 2°47.302 6.9 54 10.9 100010 82
2004-05-07 08:01:26 51°11.65 2°47.292 7.6 37 10.9 100010 82
2004-05-07 08:01:30 51°11.647 2°47.282 8 25 10.9 100010 82
2004-05-07 08:01:37 51°11.643 2°47.262 8 22 10.9 100010 82
2004-05-07 08:01:41 51°11.642 2°47.25 8.6 16 10.9 100010 81
2004-05-07 08:01:45 51°11.642 2°47.239 8.3 10 10.9 100010 81
2004-05-07 08:01:50 51°11.642 2°47.225 7.8 8 10.9 100010 82
2004-05-07 08:01:56 51°11.643 2°47.209 7.8 5 10.9 100010 82
2004-05-07 08:02:01 51°11.644 2°47.197 8.3 3 10.9 100010 82
2004-05-07 08:02:06 51°11.646 2°47.185 8 357 10.9 100010 82
2004-05-07 08:02:10 51°11.648 2°47.177 8 357 10.9 100010 82
2004-05-07 08:02:16 51°11.652 2°47.164 8 347 10.9 100010 82
2004-05-07 08:02:21 51°11.655 2°47.155 8.4 345 10.9 100010 82
2004-05-07 08:02:26 51°11.659 2°47.146 8.2 336 10.9 100010 82
2004-05-07 08:02:31 51°11.663 2°47.139 7.9 335 10.9 100010 82
2004-05-07 08:02:36 51°11.667 2°47.132 7.5 327 10.9 100010 82
2004-05-07 08:02:41 51°11.672 2°47.126 7 319 10.9 100010 82
2004-05-07 08:02:46 51°11.676 2°47.121 7.5 318 10.9 100010 82
2004-05-07 08:02:50 51°11.681 2°47.117 7.4 316 10.9 100010 81
2004-05-07 08:02:56 51°11.688 2°47.114 7.1 308 10.9 100010 81
2004-05-07 08:03:01 51°11.694 2°47.112 7.4 306 10.9 100010 81
2004-05-07 08:03:06 51°11.701 2°47.113 7.2 293 10.9 100010 81
2004-05-07 08:03:11 51°11.708 2°47.115 7.1 291 11 100010 82
2004-05-07 08:03:16 51°11.713 2°47.12 6.4 277 11 100010 82
2004-05-07 08:03:21 51°11.718 2°47.124 6.3 270 11 100010 82
2004-05-07 08:03:26 51°11.723 2°47.129 5.5 273 11 100010 82
2004-05-07 08:03:30 51°11.726 2°47.133 6 267 11 100010 82
2004-05-07 08:03:36 51°11.731 2°47.14 5.3 267 11 100010 82
2004-05-07 08:03:41 51°11.735 2°47.146 5.6 268 11 100020 82
2004-05-07 08:03:46 51°11.739 2°47.151 5.6 266 11 100020 82
2004-05-07 08:03:50 51°11.742 2°47.156 5.7 262 11 100020 82
2004-05-07 08:03:56 51°11.747 2°47.163 5.6 261 11 100020 82
2004-05-07 08:04:01 51°11.751 2°47.169 4.8 262 11 100020 82
2004-05-07 08:04:06 51°11.755 2°47.175 4.9 259 11 100020 82
2004-05-07 08:04:11 51°11.759 2°47.181 4.2 260 11 100020 82
2004-05-07 08:04:16 51°11.762 2°47.187 5.1 263 11 100020 82
2004-05-07 08:04:21 51°11.766 2°47.193 4.6 264 11 100020 82
2004-05-07 08:04:26 51°11.769 2°47.199 3.4 256 11 100020 82
2004-05-07 08:04:31 51°11.773 2°47.205 3.3 255 11 100020 82
2004-05-07 08:04:33 51°11.774 2°47.207 3.1 253 11 100020 82
2004-05-07 08:04:41 51°11.779 2°47.217 3.7 259 11 100020 82
2004-05-07 08:04:46 51°11.782 2°47.223 3.4 255 11 100020 82
2004-05-07 08:04:50 51°11.784 2°47.228 3.9 258 11 100020 82
2004-05-07 08:04:56 51°11.787 2°47.236 4.1 262 11 100020 82
2004-05-07 08:05:01 51°11.79 2°47.242 3.1 255 11 100020 82
2004-05-07 08:05:06 51°11.792 2°47.249 3.3 250 11 100020 82
2004-05-07 08:05:11 51°11.795 2°47.255 3.9 248 11 100020 82
2004-05-07 08:05:16 51°11.797 2°47.262 3.9 245 11 100020 82
2004-05-07 08:05:21 51°11.799 2°47.268 3.9 249 11 100020 82
2004-05-07 08:05:26 51°11.802 2°47.275 3.2 252 11 100020 82
2004-05-07 08:05:30 51°11.803 2°47.28 3.6 255 11.1 100020 82
2004-05-07 08:05:36 51°11.806 2°47.288 3.2 255 11.1 100020 82
2004-05-07 08:05:41 51°11.808 2°47.295 3.4 253 11 100020 82
2004-05-07 08:05:46 51°11.81 2°47.302 3.9 248 11 100020 82
2004-05-07 08:05:51 51°11.812 2°47.308 3.9 249 11 100020 82
2004-05-07 08:05:56 51°11.814 2°47.315 3.3 245 11 100020 82
2004-05-07 08:06:01 51°11.816 2°47.322 3 244 11 100020 82
2004-05-07 08:06:06 51°11.818 2°47.329 3.3 237 11 100020 82
2004-05-07 08:06:10 51°11.819 2°47.335 3.5 241 11 100020 82
2004-05-07 08:06:16 51°11.821 2°47.343 3.5 249 11 100020 82
2004-05-07 08:06:21 51°11.822 2°47.35 3.8 239 11 100020 82
2004-05-07 08:06:26 51°11.823 2°47.357 3.6 232 11 100020 82
2004-05-07 08:06:30 51°11.823 2°47.363 3.9 234 11 100020 82
2004-05-07 08:06:36 51°11.824 2°47.372 3.7 234 11 100020 82
2004-05-07 08:06:41 51°11.825 2°47.379 3.4 232 11 100020 82
2004-05-07 08:06:46 51°11.825 2°47.386 3.2 235 11 100020 82
2004-05-07 08:06:50 51°11.826 2°47.392 3.7 238 11.1 100020 82
2004-05-07 08:06:56 51°11.826 2°47.4 3.5 234 11.1 100020 82
2004-05-07 08:07:01 51°11.828 2°47.407 3.2 236 11.1 100020 82
2004-05-07 08:07:06 51°11.828 2°47.415 3.7 246 11.1 100020 82
2004-05-07 08:07:10 51°11.829 2°47.42 3.3 245 11.1 100020 82
2004-05-07 08:07:17 51°11.831 2°47.43 4.5 239 11.1 100020 82
2004-05-07 08:07:21 51°11.831 2°47.436 4.5 237 11.1 100020 82
2004-05-07 08:07:26 51°11.832 2°47.443 4.6 239 11.1 100020 82
2004-05-07 08:07:31 51°11.834 2°47.45 4.3 239 11.1 100020 82
2004-05-07 08:07:36 51°11.835 2°47.457 4.2 241 11.1 100020 82
2004-05-07 08:07:41 51°11.836 2°47.463 3.4 250 11.1 100020 82
2004-05-07 08:07:46 51°11.838 2°47.471 4.2 245 11.1 100020 82
2004-05-07 08:07:50 51°11.839 2°47.476 3.6 249 11.1 100020 82
2004-05-07 08:07:56 51°11.841 2°47.485 3.7 248 11.1 100020 82
2004-05-07 08:08:01 51°11.842 2°47.493 4 247 11.1 100020 82
2004-05-07 08:08:06 51°11.844 2°47.5 3.6 249 11.1 100020 82
2004-05-07 08:08:10 51°11.845 2°47.507 3.5 250 11 100020 82
2004-05-07 08:08:16 51°11.847 2°47.516 3.4 256 11 100020 82
2004-05-07 08:08:21 51°11.848 2°47.524 3 253 11.1 100020 82
2004-05-07 08:08:26 51°11.85 2°47.532 3.7 248 11.1 100020 82
2004-05-07 08:08:31 51°11.851 2°47.54 3.2 250 11 100020 82
2004-05-07 08:08:36 51°11.853 2°47.547 4.2 246 11 100020 82
2004-05-07 08:08:41 51°11.854 2°47.555 4.2 245 11 100020 82
2004-05-07 08:08:46 51°11.856 2°47.563 3.9 244 11 100020 82
2004-05-07 08:08:51 51°11.858 2°47.571 4.2 243 11 100020 82
2004-05-07 08:08:56 51°11.859 2°47.579 4.1 243 11 100020 82
2004-05-07 08:09:01 51°11.861 2°47.587 3.5 243 11 100020 82
2004-05-07 08:09:06 51°11.862 2°47.595 3.6 241 11 100020 82
2004-05-07 08:09:11 51°11.864 2°47.603 3.7 243 11 100020 82
2004-05-07 08:09:16 51°11.865 2°47.611 3.6 242 11 100020 82
2004-05-07 08:09:21 51°11.867 2°47.619 2.8 250 11 100020 82
2004-05-07 08:09:26 51°11.868 2°47.627 3.1 250 11 100020 82
2004-05-07 08:09:31 51°11.869 2°47.635 3.8 243 11 100020 82
2004-05-07 08:09:36 51°11.871 2°47.643 4.3 241 11 100020 82
2004-05-07 08:09:41 51°11.872 2°47.651 3.9 242 10.9 100020 82
2004-05-07 08:09:46 51°11.873 2°47.659 3.7 243 10.9 100020 82
2004-05-07 08:09:51 51°11.875 2°47.667 3.5 235 11 100020 82
2004-05-07 08:09:56 51°11.876 2°47.675 3.5 234 11 100020 82
2004-05-07 08:10:01 51°11.878 2°47.684 3.4 236 11 100020 82
2004-05-07 08:10:06 51°11.879 2°47.692 3.5 240 11 100020 82
2004-05-07 08:10:10 51°11.881 2°47.698 3.9 237 11 100020 82
2004-05-07 08:10:16 51°11.882 2°47.708 3.5 245 11 100020 82
2004-05-07 08:10:21 51°11.884 2°47.716 4.2 237 11 100020 82
2004-05-07 08:10:26 51°11.885 2°47.724 3.9 237 11 100020 82
2004-05-07 08:10:31 51°11.886 2°47.732 2.6 250 11 100020 82
2004-05-07 08:10:36 51°11.888 2°47.739 2.7 248 11 100020 82
2004-05-07 08:10:41 51°11.889 2°47.747 3.7 248 11 100020 82
2004-05-07 08:10:46 51°11.891 2°47.755 4.1 249 11 100020 82
2004-05-07 08:10:50 51°11.892 2°47.761 4.5 240 11 100020 82
2004-05-07 08:10:56 51°11.893 2°47.77 4.3 241 11 100020 82
2004-05-07 08:11:01 51°11.894 2°47.777 4.4 240 11 100020 82
2004-05-07 08:11:06 51°11.895 2°47.784 4.2 232 11 100020 82
2004-05-07 08:11:11 51°11.897 2°47.792 4.2 241 11 100020 82
2004-05-07 08:11:15 51°11.897 2°47.798 3.9 243 11 100020 82
2004-05-07 08:11:21 51°11.899 2°47.806 3.5 250 11 100020 82
2004-05-07 08:11:26 51°11.9 2°47.814 4.6 238 11 100020 82
2004-05-07 08:11:30 51°11.901 2°47.819 4.2 238 11 100020 82
2004-05-07 08:11:36 51°11.902 2°47.828 4.4 243 11 100020 82
2004-05-07 08:11:41 51°11.904 2°47.835 4.2 237 11 100020 82
2004-05-07 08:11:46 51°11.905 2°47.842 4.1 239 11 100020 82
2004-05-07 08:11:49 51°11.906 2°47.847 4.4 241 11 100020 82
2004-05-07 08:11:56 51°11.907 2°47.857 4.1 237 11 100020 82
2004-05-07 08:12:01 51°11.909 2°47.864 4.7 237 11 100020 82
2004-05-07 08:12:06 51°11.91 2°47.871 3.9 237 11 100020 82
2004-05-07 08:12:10 51°11.911 2°47.876 4 238 11 100020 82
2004-05-07 08:12:16 51°11.912 2°47.885 3.9 244 11 100020 82
2004-05-07 08:12:21 51°11.914 2°47.892 3.7 240 11 100020 82
2004-05-07 08:12:26 51°11.915 2°47.898 3.9 249 11 100020 82
2004-05-07 08:12:31 51°11.916 2°47.905 4 247 11 100020 82
2004-05-07 08:12:36 51°11.918 2°47.912 3.2 248 11 100020 82
2004-05-07 08:12:41 51°11.919 2°47.919 4.4 238 11 100020 82
2004-05-07 08:12:45 51°11.92 2°47.924 4.7 242 11 100020 82
2004-05-07 08:12:51 51°11.922 2°47.933 4.3 244 11 100020 82
2004-05-07 08:12:56 51°11.924 2°47.939 4 245 11 100020 82
2004-05-07 08:13:01 51°11.926 2°47.946 4.2 246 11 100020 82
2004-05-07 08:13:06 51°11.927 2°47.952 3.1 252 11 100020 82
2004-05-07 08:13:11 51°11.929 2°47.959 2.8 253 11 100020 82
2004-05-07 08:13:16 51°11.931 2°47.966 3.8 243 11 100020 82
2004-05-07 08:13:21 51°11.932 2°47.972 3.5 246 11 100020 82
2004-05-07 08:13:26 51°11.934 2°47.979 3.1 256 11 100020 82
2004-05-07 08:13:31 51°11.936 2°47.985 3 253 11 100020 82
2004-05-07 08:13:37 51°11.938 2°47.993 4 254 11 100020 82
2004-05-07 08:13:41 51°11.94 2°47.998 4.1 249 11 100020 82
2004-05-07 08:13:46 51°11.941 2°48.005 4.4 247 11 100020 82
2004-05-07 08:13:50 51°11.943 2°48.01 3.8 249 11 100020 82
2004-05-07 08:13:56 51°11.945 2°48.018 4.3 248 11 100020 82
2004-05-07 08:14:01 51°11.946 2°48.024 4 243 11.1 100020 82
2004-05-07 08:14:06 51°11.948 2°48.031 4.8 241 11.1 100020 82
2004-05-07 08:14:10 51°11.949 2°48.036 4.7 238 11 100020 82
2004-05-07 08:14:16 51°11.951 2°48.044 5.1 241 11 100020 82
2004-05-07 08:14:21 51°11.953 2°48.05 4.8 241 11 100020 82
2004-05-07 08:14:26 51°11.954 2°48.057 4.7 237 11 100020 82
2004-05-07 08:14:31 51°11.956 2°48.063 4.2 242 11 100020 82
2004-05-07 08:14:36 51°11.957 2°48.07 3.5 249 11 100020 82
2004-05-07 08:14:41 51°11.959 2°48.076 3.2 250 11 100020 82
2004-05-07 08:14:46 51°11.961 2°48.083 4.1 244 11 100020 82
2004-05-07 08:14:51 51°11.962 2°48.089 3.9 247 11 100020 82
2004-05-07 08:14:55 51°11.963 2°48.095 4.2 243 11 100020 82
2004-05-07 08:15:01 51°11.965 2°48.102 4.3 243 11 100020 82
2004-05-07 08:15:06 51°11.967 2°48.109 4.6 242 11 100020 82
2004-05-07 08:15:10 51°11.968 2°48.114 4.4 244 11 100020 82
2004-05-07 08:15:16 51°11.97 2°48.122 4.1 245 11 100020 82
2004-05-07 08:15:21 51°11.972 2°48.128 3.9 247 11 100020 82
2004-05-07 08:15:26 51°11.973 2°48.135 4.3 240 11 100020 82
2004-05-07 08:15:29 51°11.974 2°48.138 4.6 243 11 100020 82
2004-05-07 08:15:36 51°11.977 2°48.148 4.7 241 11 100020 82
2004-05-07 08:15:41 51°11.978 2°48.154 3.9 243 11 100020 82
2004-05-07 08:15:46 51°11.98 2°48.161 4.7 236 11 100020 82
2004-05-07 08:15:51 51°11.981 2°48.167 4.8 237 10.9 100020 82
2004-05-07 08:15:55 51°11.982 2°48.172 5 239 10.9 100020 82
2004-05-07 08:16:01 51°11.985 2°48.18 4.4 231 11 100020 82
2004-05-07 08:16:06 51°11.986 2°48.187 4.4 237 11 100020 82
2004-05-07 08:16:11 51°11.988 2°48.193 3.8 240 11 100020 82
2004-05-07 08:16:16 51°11.989 2°48.2 4.3 237 11 100020 82
2004-05-07 08:16:21 51°11.991 2°48.207 5.1 235 10.9 100020 82
2004-05-07 08:16:26 51°11.992 2°48.213 4.7 231 10.9 100020 82
2004-05-07 08:16:30 51°11.993 2°48.218 4 237 11 100020 82
2004-05-07 08:16:36 51°11.995 2°48.226 3.9 240 11 100020 82
2004-05-07 08:16:41 51°11.996 2°48.233 3.9 243 11 100020 82
2004-05-07 08:16:46 51°11.998 2°48.24 3.1 255 11 100020 82
2004-05-07 08:16:49 51°11.999 2°48.243 3.1 255 11 100020 82
2004-05-07 08:16:56 51°12.002 2°48.252 4.4 248 11 100020 82
2004-05-07 08:17:01 51°12.003 2°48.259 4 249 11 100020 82
2004-05-07 08:17:06 51°12.005 2°48.265 4.8 247 11 100020 82
2004-05-07 08:17:11 51°12.007 2°48.271 4.2 251 11 100020 82
2004-05-07 08:17:16 51°12.009 2°48.278 2.8 258 11 100020 82
2004-05-07 08:17:21 51°12.012 2°48.284 3.3 257 11 100020 82
2004-05-07 08:17:25 51°12.013 2°48.288 4.7 261 11 100020 82
2004-05-07 08:17:31 51°12.016 2°48.295 5 259 11 100020 82
2004-05-07 08:17:35 51°12.018 2°48.3 4.2 257 11 100020 82
2004-05-07 08:17:41 51°12.021 2°48.307 5.1 260 11 100020 82
2004-05-07 08:17:46 51°12.024 2°48.313 5.4 261 11 100020 82
2004-05-07 08:17:50 51°12.026 2°48.317 5.2 261 11.1 100020 82
2004-05-07 08:17:56 51°12.029 2°48.324 3.8 254 11.1 100020 82
2004-05-07 08:18:01 51°12.031 2°48.33 3.3 254 11.1 100020 82
2004-05-07 08:18:06 51°12.034 2°48.335 4.1 256 11.1 100020 82
2004-05-07 08:18:10 51°12.036 2°48.34 3.7 256 11.1 100020 82
2004-05-07 08:18:16 51°12.039 2°48.346 3.9 255 11.1 100020 82
2004-05-07 08:18:21 51°12.042 2°48.352 4 255 11.1 100020 82
2004-05-07 08:18:26 51°12.044 2°48.357 4 249 11.1 100020 82
2004-05-07 08:18:31 51°12.047 2°48.363 4.3 256 11 100020 82
2004-05-07 08:18:35 51°12.049 2°48.368 3.7 254 11 100020 82
2004-05-07 08:18:41 51°12.052 2°48.374 3.7 256 11 100020 82
2004-05-07 08:18:46 51°12.055 2°48.38 3.6 255 11 100020 82
2004-05-07 08:18:51 51°12.057 2°48.385 4.7 250 11 100020 82
2004-05-07 08:18:56 51°12.06 2°48.391 4.6 248 11 100020 82
2004-05-07 08:19:01 51°12.062 2°48.396 4.1 254 11 100020 82
2004-05-07 08:19:06 51°12.065 2°48.402 4.9 260 11 100020 82
2004-05-07 08:19:09 51°12.067 2°48.405 4.2 260 11 100020 82
2004-05-07 08:19:14 51°12.069 2°48.411 4 250 11 100020 82
2004-05-07 08:19:21 51°12.073 2°48.419 3.7 256 11 100020 82
2004-05-07 08:19:26 51°12.075 2°48.424 3.8 257 11 100020 82
2004-05-07 08:19:30 51°12.078 2°48.429 5.2 263 11 100020 82
2004-05-07 08:19:36 51°12.081 2°48.436 4.2 256 11 100020 82
2004-05-07 08:19:41 51°12.083 2°48.441 4.2 256 11 100020 83
2004-05-07 08:19:46 51°12.086 2°48.447 4.3 254 11 100020 83
2004-05-07 08:19:50 51°12.088 2°48.451 3.7 255 11.1 100020 83
2004-05-07 08:19:56 51°12.091 2°48.458 4.2 256 11.1 100020 83
2004-05-07 08:20:01 51°12.093 2°48.464 4.2 259 11.1 100020 83
2004-05-07 08:20:06 51°12.096 2°48.47 3.2 254 11.1 100020 83
2004-05-07 08:20:11 51°12.098 2°48.475 3.2 255 11 100020 83
2004-05-07 08:20:16 51°12.101 2°48.481 3.5 255 11 100020 83
2004-05-07 08:20:21 51°12.103 2°48.487 4.3 252 11 100020 83
2004-05-07 08:20:26 51°12.106 2°48.492 5.1 260 11 100020 83
2004-05-07 08:20:30 51°12.108 2°48.497 3.9 253 11.1 100020 83
2004-05-07 08:20:35 51°12.11 2°48.503 4 258 11.1 100020 83
2004-05-07 08:20:41 51°12.113 2°48.51 4.3 260 11.1 100020 83
2004-05-07 08:20:46 51°12.116 2°48.516 4.4 258 11.1 100020 83
2004-05-07 08:20:50 51°12.117 2°48.521 4.9 261 11.1 100020 83
2004-05-07 08:20:57 51°12.121 2°48.529 5.2 259 11.1 100020 83
2004-05-07 08:21:01 51°12.123 2°48.534 4.7 259 11.1 100020 83
2004-05-07 08:21:06 51°12.125 2°48.54 4.4 258 11.1 100020 83
2004-05-07 08:21:10 51°12.127 2°48.544 4.1 257 11.1 100020 83
2004-05-07 08:21:16 51°12.13 2°48.552 3.7 256 11.1 100020 83
2004-05-07 08:21:21 51°12.133 2°48.558 4.1 257 11.1 100020 83
2004-05-07 08:21:26 51°12.135 2°48.564 4.6 260 11.1 100020 83
2004-05-07 08:21:30 51°12.137 2°48.568 4.2 258 11.1 100020 83
2004-05-07 08:21:36 51°12.14 2°48.576 5.2 260 11.1 100020 83
2004-05-07 08:21:41 51°12.142 2°48.581 4.5 257 11.1 100020 83
2004-05-07 08:21:45 51°12.144 2°48.586 5.5 259 11.1 100020 83
2004-05-07 08:21:51 51°12.147 2°48.593 4 256 11.1 100020 83
2004-05-07 08:21:56 51°12.15 2°48.599 4.4 255 11.1 100020 83
2004-05-07 08:22:01 51°12.152 2°48.605 4 255 11.1 100020 83
2004-05-07 08:22:06 51°12.155 2°48.611 4 256 11.1 100020 83
2004-05-07 08:22:12 51°12.157 2°48.618 3.8 254 11.1 100020 83
2004-05-07 08:22:16 51°12.159 2°48.622 3.9 256 11.1 100020 83
2004-05-07 08:22:21 51°12.162 2°48.628 4.7 258 11 100020 83
2004-05-07 08:22:26 51°12.164 2°48.634 4.4 254 11 100020 83
2004-05-07 08:22:30 51°12.166 2°48.639 4.2 255 11 100020 83
2004-05-07 08:22:36 51°12.169 2°48.646 3.6 254 11 100020 83
2004-05-07 08:22:41 51°12.171 2°48.651 3.9 252 11 100020 83
2004-05-07 08:22:46 51°12.174 2°48.657 3.8 250 11 100020 83
2004-05-07 08:22:49 51°12.175 2°48.661 4.3 250 11 100020 83
2004-05-07 08:22:56 51°12.179 2°48.669 3.8 255 11 100020 83
2004-05-07 08:23:01 51°12.181 2°48.675 3.7 256 11 100020 82
2004-05-07 08:23:06 51°12.183 2°48.681 3.3 253 11 100020 82
2004-05-07 08:23:11 51°12.186 2°48.686 3.8 252 11 100020 82
2004-05-07 08:23:15 51°12.188 2°48.691 4.1 252 11 100020 82
2004-05-07 08:23:21 51°12.19 2°48.698 3.9 256 11 100020 82
2004-05-07 08:23:26 51°12.193 2°48.704 4.1 254 11 100020 82
2004-05-07 08:23:31 51°12.195 2°48.709 4.2 255 11 100020 83
2004-05-07 08:23:36 51°12.198 2°48.715 3.7 253 11 100020 83
2004-05-07 08:23:41 51°12.2 2°48.721 3.8 252 11 100020 83
2004-05-07 08:23:46 51°12.202 2°48.726 4.1 258 11 100020 83
2004-05-07 08:23:49 51°12.204 2°48.73 4.1 254 11 100020 83
2004-05-07 08:23:54 51°12.206 2°48.736 5.2 260 11 100020 83
2004-05-07 08:24:01 51°12.21 2°48.744 4.3 254 11 100020 83
2004-05-07 08:24:05 51°12.211 2°48.748 5 248 11 100020 83
2004-05-07 08:24:11 51°12.215 2°48.755 3.8 254 11 100020 83
2004-05-07 08:24:16 51°12.217 2°48.761 4 257 11 100020 83
2004-05-07 08:24:21 51°12.219 2°48.767 4.3 260 11 100020 83
2004-05-07 08:24:26 51°12.222 2°48.773 3.4 251 11 100020 83
2004-05-07 08:24:30 51°12.224 2°48.777 4.9 266 11 100020 83
2004-05-07 08:24:36 51°12.226 2°48.784 5 263 11 100020 83
2004-05-07 08:24:41 51°12.229 2°48.79 4 259 11 100020 83
2004-05-07 08:24:46 51°12.231 2°48.796 4.5 263 11 100020 83
2004-05-07 08:24:51 51°12.234 2°48.801 4.5 259 11 100020 83
2004-05-07 08:24:55 51°12.235 2°48.806 4.9 259 11 100020 83
2004-05-07 08:25:01 51°12.239 2°48.813 4.6 260 11 100020 83
2004-05-07 08:25:05 51°12.24 2°48.818 4.9 260 11 100020 83
2004-05-07 08:25:11 51°12.243 2°48.824 5.3 261 11 100020 83
2004-05-07 08:25:16 51°12.246 2°48.83 4.9 266 11 100020 83
2004-05-07 08:25:21 51°12.248 2°48.836 5.4 262 11 100020 83
2004-05-07 08:25:26 51°12.25 2°48.842 4.9 259 11 100020 83
2004-05-07 08:25:31 51°12.253 2°48.848 4.1 256 11 100020 83
2004-05-07 08:25:36 51°12.255 2°48.853 4.8 262 11 100020 83
2004-05-07 08:25:41 51°12.257 2°48.859 5.4 265 11 100020 83
2004-05-07 08:25:46 51°12.26 2°48.865 4.7 257 11 100020 83
2004-05-07 08:25:50 51°12.262 2°48.87 4.3 256 11.1 100020 83
2004-05-07 08:25:56 51°12.264 2°48.876 3.9 253 11.1 100020 83
2004-05-07 08:26:01 51°12.267 2°48.882 4.4 253 11.1 100020 83
2004-05-07 08:26:06 51°12.269 2°48.888 3.9 254 11.1 100020 83
2004-05-07 08:26:10 51°12.271 2°48.893 4 250 11.1 100020 83
2004-05-07 08:26:16 51°12.274 2°48.899 3.5 255 11.1 100020 83
2004-05-07 08:26:21 51°12.276 2°48.905 3.9 253 11.1 100020 83
2004-05-07 08:26:26 51°12.278 2°48.911 4.2 249 11.1 100020 83
2004-05-07 08:26:30 51°12.28 2°48.915 4.5 252 11.1 100020 83
2004-05-07 08:26:36 51°12.283 2°48.922 4.2 249 11.1 100020 83
2004-05-07 08:26:41 51°12.285 2°48.928 4.2 251 11.1 100020 83
2004-05-07 08:26:45 51°12.287 2°48.933 4.6 248 11.1 100020 83
2004-05-07 08:26:50 51°12.289 2°48.938 3.7 246 11 100020 83
2004-05-07 08:26:56 51°12.292 2°48.945 3.6 254 11 100020 83
2004-05-07 08:27:01 51°12.294 2°48.951 4.8 257 11 100020 83
2004-05-07 08:27:06 51°12.296 2°48.957 4.1 258 11 100020 83
2004-05-07 08:27:10 51°12.298 2°48.961 4.3 259 11 100020 83
2004-05-07 08:27:16 51°12.301 2°48.968 4.1 254 11 100020 83
2004-05-07 08:27:21 51°12.303 2°48.974 4 254 11 100020 83
2004-05-07 08:27:26 51°12.306 2°48.979 3.2 255 11 100020 83
2004-05-07 08:27:31 51°12.308 2°48.985 3.9 253 11.1 100020 83
2004-05-07 08:27:36 51°12.31 2°48.991 3.5 255 11.1 100020 83
2004-05-07 08:27:41 51°12.313 2°48.996 3.9 254 11.1 100020 83
2004-05-07 08:27:46 51°12.315 2°49.002 3.5 255 11.1 100020 83
2004-05-07 08:27:50 51°12.317 2°49.007 4.2 253 11.1 100020 83
2004-05-07 08:27:56 51°12.32 2°49.013 3.6 257 11.1 100020 83
2004-05-07 08:28:01 51°12.323 2°49.019 3.7 254 11.1 100020 83
2004-05-07 08:28:06 51°12.325 2°49.025 3.8 258 11.1 100020 83
2004-05-07 08:28:09 51°12.327 2°49.028 4.2 259 11.1 100020 83
2004-05-07 08:28:16 51°12.33 2°49.036 5 258 11.1 100020 83
2004-05-07 08:28:21 51°12.333 2°49.042 3.9 257 11.1 100020 83
2004-05-07 08:28:25 51°12.335 2°49.046 3.3 253 11.1 100020 83
2004-05-07 08:28:31 51°12.338 2°49.053 3.3 255 11.1 100020 83
2004-05-07 08:28:36 51°12.34 2°49.059 4.8 264 11.1 100020 83
2004-05-07 08:28:41 51°12.343 2°49.065 4.4 255 11.1 100020 83
2004-05-07 08:28:46 51°12.345 2°49.07 4.1 256 11.1 100020 83
2004-05-07 08:28:51 51°12.348 2°49.076 4.9 257 11.1 100020 83
2004-05-07 08:28:56 51°12.35 2°49.082 4.4 258 11.1 100020 83
2004-05-07 08:29:01 51°12.353 2°49.087 4.4 259 11.1 100030 83
2004-05-07 08:29:06 51°12.355 2°49.093 3.9 250 11.1 100030 83
2004-05-07 08:29:10 51°12.357 2°49.098 5.2 260 11.1 100020 83
2004-05-07 08:29:16 51°12.36 2°49.104 3.7 255 11.1 100020 83
2004-05-07 08:29:21 51°12.363 2°49.11 3.8 255 11.1 100020 83
2004-05-07 08:29:26 51°12.365 2°49.116 4.3 258 11.1 100020 83
2004-05-07 08:29:30 51°12.367 2°49.12 5 262 11.1 100020 83
2004-05-07 08:29:37 51°12.37 2°49.128 3.5 255 11.1 100020 83
2004-05-07 08:29:41 51°12.372 2°49.132 4 256 11.1 100020 83
2004-05-07 08:29:46 51°12.375 2°49.138 4 255 11.1 100020 83
2004-05-07 08:29:51 51°12.377 2°49.144 3.6 254 11.1 100020 83
2004-05-07 08:29:56 51°12.379 2°49.149 3.9 255 11.1 100020 83
2004-05-07 08:30:01 51°12.382 2°49.155 3.6 255 11.1 100020 83
2004-05-07 08:30:05 51°12.384 2°49.159 3.1 255 11.1 100020 83
2004-05-07 08:30:10 51°12.386 2°49.165 3.3 250 11.1 100020 83
2004-05-07 08:30:16 51°12.389 2°49.172 4.1 261 11.1 100020 83
2004-05-07 08:30:21 51°12.391 2°49.177 4.3 260 11.1 100020 83
2004-05-07 08:30:26 51°12.393 2°49.182 3.9 257 11.1 100020 83
2004-05-07 08:30:31 51°12.395 2°49.188 4.6 248 11 100020 83
2004-05-07 08:30:36 51°12.397 2°49.194 3.4 252 11 100020 83
2004-05-07 08:30:41 51°12.399 2°49.199 3.5 250 11.1 100020 83
2004-05-07 08:30:46 51°12.402 2°49.205 4 249 11.1 100020 83
2004-05-07 08:30:49 51°12.403 2°49.209 3.6 258 11 100020 83
2004-05-07 08:30:56 51°12.406 2°49.216 4.8 259 11 100020 83
2004-05-07 08:31:01 51°12.409 2°49.222 4 253 11.1 100020 83
2004-05-07 08:31:06 51°12.411 2°49.228 3.7 254 11.1 100020 83
2004-05-07 08:31:11 51°12.413 2°49.233 3.8 256 11 100020 83
2004-05-07 08:31:16 51°12.415 2°49.239 3.5 253 11 100020 83
2004-05-07 08:31:21 51°12.417 2°49.244 3.5 249 11.1 100020 83
2004-05-07 08:31:26 51°12.419 2°49.25 4.1 252 11.1 100020 83
2004-05-07 08:31:31 51°12.421 2°49.256 3.8 253 11 100020 83
2004-05-07 08:31:36 51°12.423 2°49.261 4.2 250 11 100020 83
2004-05-07 08:31:41 51°12.425 2°49.267 4.5 250 11 100020 83
2004-05-07 08:31:46 51°12.427 2°49.272 3.9 246 11 100020 83
2004-05-07 08:31:51 51°12.429 2°49.278 3 252 11 100020 83
2004-05-07 08:31:56 51°12.431 2°49.284 4 246 11 100020 83
2004-05-07 08:32:01 51°12.432 2°49.29 3.8 249 11 100020 83
2004-05-07 08:32:05 51°12.434 2°49.295 4.8 241 11 100020 83
2004-05-07 08:32:10 51°12.435 2°49.301 4.3 241 11 100020 83
2004-05-07 08:32:15 51°12.436 2°49.306 4.3 240 11 100020 83
2004-05-07 08:32:21 51°12.438 2°49.313 4.1 241 11 100030 83
2004-05-07 08:32:26 51°12.439 2°49.319 3.3 250 11 100030 83
2004-05-07 08:32:30 51°12.441 2°49.324 3.6 252 11 100030 83
2004-05-07 08:32:36 51°12.442 2°49.331 4.9 242 11 100030 83
2004-05-07 08:32:41 51°12.444 2°49.336 4 248 11 100020 83
2004-05-07 08:32:46 51°12.445 2°49.342 3.7 248 11 100020 83
2004-05-07 08:32:50 51°12.446 2°49.347 4.3 246 11 100030 83
2004-05-07 08:32:56 51°12.448 2°49.353 4 245 11 100030 83
2004-05-07 08:33:01 51°12.449 2°49.359 4.5 244 11 100030 83
2004-05-07 08:33:05 51°12.45 2°49.363 4.6 241 11 100030 83
2004-05-07 08:33:11 51°12.452 2°49.37 4.8 240 11 100020 83
2004-05-07 08:33:16 51°12.454 2°49.375 3.5 250 11 100020 83
2004-05-07 08:33:21 51°12.455 2°49.38 3.9 249 11 100020 83
2004-05-07 08:33:26 51°12.457 2°49.386 3.8 247 11 100020 83
2004-05-07 08:33:30 51°12.458 2°49.39 3.8 247 11 100030 83
2004-05-07 08:33:36 51°12.46 2°49.397 3.8 251 11 100030 83
2004-05-07 08:33:41 51°12.462 2°49.402 3.3 255 11 100020 83
2004-05-07 08:33:46 51°12.463 2°49.407 3.7 255 11 100020 83
2004-05-07 08:33:50 51°12.465 2°49.412 3.8 256 11 100020 83
2004-05-07 08:33:57 51°12.467 2°49.418 4.7 260 11 100020 83
2004-05-07 08:34:01 51°12.469 2°49.422 6.1 267 11 100020 83
2004-05-07 08:34:06 51°12.47 2°49.427 6.2 262 11 100020 83
2004-05-07 08:34:10 51°12.472 2°49.429 5 259 11.1 100030 84
2004-05-07 08:34:16 51°12.474 2°49.434 5.8 260 11.1 100030 84
2004-05-07 08:34:21 51°12.476 2°49.437 6.5 261 11 100020 84
2004-05-07 08:34:26 51°12.478 2°49.44 6 262 11 100020 84
2004-05-07 08:34:30 51°12.479 2°49.443 6.2 262 11.1 100020 84
2004-05-07 08:34:36 51°12.482 2°49.446 6.4 265 11.1 100020 84
2004-05-07 08:34:41 51°12.483 2°49.448 5.7 265 11.1 100020 84
2004-05-07 08:34:46 51°12.485 2°49.451 6.3 265 11.1 100020 84
2004-05-07 08:34:51 51°12.487 2°49.452 7.1 263 11 100020 83
2004-05-07 08:34:56 51°12.489 2°49.454 5.7 258 11 100020 83
2004-05-07 08:35:01 51°12.49 2°49.456 6.3 269 11.1 100020 83
2004-05-07 08:35:06 51°12.492 2°49.457 6.7 264 11.1 100020 83
2004-05-07 08:35:11 51°12.494 2°49.458 6.9 266 11 100020 83
2004-05-07 08:35:16 51°12.495 2°49.46 6.9 266 11 100020 83
2004-05-07 08:35:21 51°12.497 2°49.46 6.4 273 11.1 100020 83
2004-05-07 08:35:26 51°12.498 2°49.461 7 268 11.1 100020 83
2004-05-07 08:35:31 51°12.5 2°49.462 6.3 271 11.1 100020 84
2004-05-07 08:35:36 51°12.501 2°49.463 6.4 268 11.1 100020 84
2004-05-07 08:35:41 51°12.503 2°49.463 7 270 11.1 100020 84
2004-05-07 08:35:46 51°12.504 2°49.463 6.3 271 11.1 100020 84
2004-05-07 08:35:51 51°12.506 2°49.463 6.5 271 11.1 100020 84
2004-05-07 08:35:54 51°12.506 2°49.464 6.6 267 11.1 100020 84
2004-05-07 08:36:01 51°12.508 2°49.464 6.9 265 11.1 100020 84
2004-05-07 08:36:05 51°12.509 2°49.464 6.7 270 11.1 100020 84
2004-05-07 08:36:10 51°12.511 2°49.464 7.3 267 11.1 100020 84
2004-05-07 08:36:16 51°12.512 2°49.463 6.5 271 11.1 100020 84
2004-05-07 08:36:21 51°12.513 2°49.463 6.9 272 11.1 100020 84
2004-05-07 08:36:26 51°12.515 2°49.463 6.4 268 11.1 100020 84
2004-05-07 08:36:30 51°12.515 2°49.463 5.8 272 11.1 100020 84
2004-05-07 08:36:36 51°12.517 2°49.462 6.5 274 11.1 100020 84
2004-05-07 08:36:41 51°12.518 2°49.461 6 271 11.1 100020 84
2004-05-07 08:36:46 51°12.519 2°49.461 5.8 278 11.1 100020 84
2004-05-07 08:36:51 51°12.52 2°49.46 5.7 276 11.2 100020 84
2004-05-07 08:36:56 51°12.521 2°49.46 5.9 282 11.2 100020 84
2004-05-07 08:37:01 51°12.522 2°49.459 6.5 280 11.2 100020 84
2004-05-07 08:37:06 51°12.523 2°49.458 6.6 276 11.2 100020 84
2004-05-07 08:37:11 51°12.524 2°49.457 7 275 11.2 100020 84
2004-05-07 08:37:17 51°12.525 2°49.456 6.6 276 11.2 100020 84
2004-05-07 08:37:21 51°12.525 2°49.455 6 279 11.2 100020 84
2004-05-07 08:37:25 51°12.526 2°49.455 6.4 282 11.2 100020 84
2004-05-07 08:37:30 51°12.527 2°49.454 5.8 280 11.2 100020 84
2004-05-07 08:37:36 51°12.528 2°49.452 6.2 278 11.2 100020 84
2004-05-07 08:37:41 51°12.528 2°49.451 5.8 279 11.2 100020 84
2004-05-07 08:37:46 51°12.529 2°49.45 6.4 285 11.2 100020 84
2004-05-07 08:37:51 51°12.53 2°49.449 6.5 274 11.2 100020 84
2004-05-07 08:37:56 51°12.531 2°49.448 6.1 282 11.2 100020 84
2004-05-07 08:38:01 51°12.531 2°49.446 5.6 282 11.2 100020 84
2004-05-07 08:38:06 51°12.532 2°49.445 6.1 285 11.2 100020 84